Regional Weather Roundup
Issued by NWS

Home | Current Version | Previous Version | Graphics & Text | Print | Product List | Glossary On
Versions: 1 2 3 4 5 6 7 8 9 10 11 12 13 14 15 16 17 18 19 20 21 22 23 24 25 26 27 28 29 30 31 32 33 34 35 36 37 38 39 40 41 42 43 44 45 46 47 48 49 50
000
ASUS43 KDMX 270708
RWRIA

WEATHER ROUNDUP FOR IOWA
NATIONAL WEATHER SERVICE DES MOINES IA
200 AM CDT SAT AUG 27 2016

NOTE: "FAIR" INDICATES FEW OR NO CLOUDS BELOW 12,000 FEET WITH NO
SIGNIFICANT WEATHER AND/OR OBSTRUCTIONS TO VISIBILITY.

* - THESE STATIONS ARE NOT NWS STATIONS...THUS NOT UNDER NWS
QUALITY CONTROL.  THEY ALSO DO NOT REPORT WEATHER SUCH
AS PRECIPITATION OR FOG.

IAZ001>003-012>014-020>022-031>034-043>046-270800-
   NORTHWEST IOWA

CITY           SKY/WX    TMP DP  RH WIND       PRES   REMARKS
CARROLL *      CLOUDY    63  61  94 VRB3      30.03F
CHEROKEE *     CLOUDY    63  59  89 E3        30.04F
DENISON *      CLOUDY    63  61  94 E5        30.02F FOG
LE MARS *      CLOUDY    64  61  88 VRB3      30.04F
ORANGE CITY *  CLOUDY    63  59  88 E3        30.05F
SHELDON *      CLOUDY    63  61  94 E5        30.03F
SIOUX CITY     CLOUDY    65  62  90 SE9       30.02F
SPENCER        CLOUDY    62  57  83 E9        30.06F
STORM LAKE *   CLOUDY    61  59  94 E6        30.05F
$$

IAZ055>058-069>071-079>083-090>094-270800-
   SOUTHWEST IOWA

CITY           SKY/WX    TMP DP  RH WIND       PRES   REMARKS
ATLANTIC *     CLOUDY    64  64 100 CALM      30.02F
AUDUBON *      CLOUDY    63  61  94 E6        30.04F FOG
CLARINDA *       N/A     68  68 100 MISG      30.04R
COUNCIL BLFS * CLOUDY    64  64 100 CALM      30.02S FOG
CRESTON *      CLOUDY    66  66 100 NE3       30.04S
HARLAN  *      CLOUDY    64  64 100 VRB6      30.05F
LAMONI         CLOUDY    68  68 100 W6        30.00S
RED OAK *      CLOUDY    66  66 100 CALM      30.01F
SHENANDOAH *   CLOUDY    66 N/A N/A CALM      30.03S
$$

IAZ047>049-059>061-072>074-084-270800-
   CENTRAL IOWA

CITY           SKY/WX    TMP DP  RH WIND       PRES   REMARKS
AMES           CLOUDY    61  61 100 E8        30.04F
ANKENY *         N/A    N/A N/A N/A MISG        N/A
BOONE *        MOCLDY    61  61 100 E8        30.04R
CHARITON *       N/A     68  66  94 MISG      29.98F
DES MOINES     MOCLDY    64  62  93 E10       30.00F
GRINNELL*      CLOUDY    62  60  94 NE10      30.04F
KNOXVILLE *    CLOUDY    66  64  94 E10       29.99F
MARSHALLTOWN   CLOUDY    61  59  93 E8        30.04F
NEWTON *       CLOUDY    63  63 100 NE9       30.02F
PELLA *        DRIZZLE   65  64  96 E6        30.02F
PERRY *        CLOUDY    62  62  98 CALM      30.04S
$$

IAZ004>006-015-016-023>025-035-036-270800-
   NORTH CENTRAL IOWA

CITY           SKY/WX    TMP DP  RH WIND       PRES   REMARKS
ALGONA *       CLOUDY    63  57  82 E7        30.06F
ESTHERVILLE    CLOUDY    60  60 100 E5        30.06
FORT DODGE *   CLOUDY    61  57  88 E7        30.05F
MASON CITY     LGT RAIN  61  59  93 E6        30.10F
FOREST CITY *    N/A    N/A N/A N/A MISG        N/A
WEBSTER CITY * CLOUDY    61  59  94 NE7       30.03F
IOWA FALLS *   CLOUDY    60  58  94 NE7       30.06F
$$

IAZ007>011-017>019-026>030-037>042-050>054-066-270800-
   NORTHEAST IOWA

CITY           SKY/WX    TMP DP  RH WIND       PRES   REMARKS
CEDAR RAPIDS   LGT RAIN  65  65 100 N6        30.04F
CHARLES CITY * CLOUDY    61  61 100 NE5       30.09S
CLINTON *      CLOUDY    69  68  96 SE13      30.05F
DECORAH *      CLOUDY    61  61 100 E5        30.09F
DUBUQUE        CLOUDY    64  63  96 N9        30.08F
MONTICELLO *   CLOUDY    64  63  94 NE5       30.06F
OELWEIN *      CLOUDY    61  61 100 E10       30.09F
WATERLOO       CLOUDY    61  58  90 E8        30.06F
$$

IAZ064-065-067-068-078-270800-
   EAST CENTRAL IOWA

CITY           SKY/WX    TMP DP  RH WIND       PRES   REMARKS
DAVENPORT      HVY RAIN  68  66  93 E8        30.05F FOG
IOWA CITY      MOCLDY    68  65  90 N7        30.04F
MT. PLEASANT * RAIN      72  72 100 CALM      30.03S
MUSCATINE *    CLOUDY    70  68  94 CALM      30.02F
QUAD CITIES    CLOUDY    69  67  93 E10       30.03F
$$

IAZ062-063-075>077-085>089-095>099-270800-
   SOUTHEAST IOWA

CITY           SKY/WX    TMP DP  RH WIND       PRES   REMARKS
BURLINGTON     LGT RAIN  71  71 100 CALM      30.03S
FAIRFIELD *    CLOUDY    70  68  94 SE8       30.02R FOG
FORT MADISON * CLOUDY    70  70 100 W6        30.05R
KEOKUK *       LGT RAIN  70  68  94 NW6G13    30.02S
OSKALOOSA *    CLOUDY    66  65  97 E9        30.02F
CENTERVILLE *    N/A     66  64  94 CALM      30.03F
OTTUMWA        CLOUDY    68  66  93 NE6       30.02S
WASHINGTON *   CLOUDY    68  68 100 E5        30.03F
$$

ABBREVIATIONS USED IN REMARKS
   TC - TEMPERATURES IN CELSIUS
  WCI - WIND CHILL INDEX
   HX - HEAT INDEX
  VSB - VISIBILITY
$$





USA.gov is the U.S. government's official web portal to all federal, state and local government web resources and services.